SAS84K EGKK-EKCH

Flight info

Callsign SAS84K
Flight time 1h 25m
Altitude 39000
Route FRANE M604 PAAVO Q295 SOMVA DCT MAVAS DCT DOSUR DCT TALSA P729 TUDLO
Aircraft A333/H-SDE3GHIJ2J3J5M1RVWXY/LB2D1

Departure

Time 2026-05-04 13:25
Airport London Gatwick Airport (EGKK)

Arrival

Time 2026-05-04 14:51
Airport Copenhagen Kastrup Airport (EKCH)
Time Latitude Longitude Altitude Speed Heading
2026-05-04 12:55 51.15857 -0.17968 217 ft 0 kts 78°
2026-05-04 13:06 51.15856 -0.17978 208 ft 4 kts 79°
2026-05-04 13:07 51.15852 -0.18021 215 ft 4 kts 91°
2026-05-04 13:07 51.15856 -0.18062 212 ft 4 kts 113°
2026-05-04 13:07 51.15870 -0.18092 220 ft 3 kts 163°
2026-05-04 13:07 51.15873 -0.18093 217 ft 1 kts 167°
2026-05-04 13:10 51.15867 -0.18092 220 ft 3 kts 168°
2026-05-04 13:10 51.15837 -0.18080 220 ft 5 kts 165°
2026-05-04 13:10 51.15796 -0.18067 216 ft 7 kts 168°
2026-05-04 13:11 51.15741 -0.18048 220 ft 9 kts 166°
2026-05-04 13:11 51.15694 -0.18066 220 ft 4 kts 226°
2026-05-04 13:11 51.15683 -0.18105 215 ft 7 kts 252°
2026-05-04 13:11 51.15663 -0.18227 218 ft 14 kts 258°
2026-05-04 13:12 51.15641 -0.18393 212 ft 16 kts 258°
2026-05-04 13:12 51.15615 -0.18579 216 ft 18 kts 258°
2026-05-04 13:12 51.15590 -0.18762 219 ft 9 kts 255°
2026-05-04 13:12 51.15546 -0.18821 216 ft 9 kts 188°
2026-05-04 13:13 51.15481 -0.18808 214 ft 10 kts 167°
2026-05-04 13:13 51.15410 -0.18784 208 ft 11 kts 168°
2026-05-04 13:13 51.15329 -0.18756 219 ft 13 kts 167°
2026-05-04 13:13 51.15240 -0.18725 217 ft 12 kts 168°
2026-05-04 13:14 51.15203 -0.18712 217 ft 0 kts 167°
2026-05-04 13:14 51.15198 -0.18710 217 ft 5 kts 169°
2026-05-04 13:14 51.15144 -0.18723 220 ft 10 kts 221°
2026-05-04 13:15 51.15116 -0.18848 219 ft 13 kts 258°
2026-05-04 13:15 51.15097 -0.18989 218 ft 14 kts 258°
2026-05-04 13:15 51.15075 -0.19147 216 ft 14 kts 257°
2026-05-04 13:15 51.15053 -0.19304 216 ft 15 kts 257°
2026-05-04 13:16 51.15032 -0.19462 218 ft 14 kts 257°
2026-05-04 13:16 51.15020 -0.19548 218 ft 1 kts 258°
2026-05-04 13:16 51.15014 -0.19590 219 ft 7 kts 258°
2026-05-04 13:16 51.14999 -0.19695 215 ft 12 kts 257°
2026-05-04 13:17 51.14977 -0.19857 215 ft 17 kts 257°
2026-05-04 13:17 51.14949 -0.20061 216 ft 11 kts 258°
2026-05-04 13:17 51.14934 -0.20169 210 ft 11 kts 258°
2026-05-04 13:17 51.14917 -0.20294 211 ft 12 kts 257°
2026-05-04 13:18 51.14897 -0.20435 218 ft 13 kts 258°
2026-05-04 13:18 51.14877 -0.20587 215 ft 15 kts 258°
2026-05-04 13:18 51.14854 -0.20755 216 ft 16 kts 257°
2026-05-04 13:18 51.14828 -0.20937 217 ft 17 kts 257°
2026-05-04 13:19 51.14801 -0.21119 216 ft 13 kts 251°
2026-05-04 13:19 51.14774 -0.21257 209 ft 14 kts 257°
2026-05-04 13:19 51.14741 -0.21384 217 ft 10 kts 219°
2026-05-04 13:19 51.14682 -0.21386 217 ft 8 kts 162°
2026-05-04 13:20 51.14647 -0.21347 218 ft 6 kts 151°
2026-05-04 13:20 51.14619 -0.21333 220 ft 0 kts 165°
2026-05-04 13:21 51.14608 -0.21327 215 ft 5 kts 164°
2026-05-04 13:21 51.14557 -0.21294 219 ft 11 kts 146°
2026-05-04 13:21 51.14522 -0.21178 219 ft 11 kts 85°
2026-05-04 13:22 51.14530 -0.21100 218 ft 0 kts 78°
2026-05-04 13:24 51.14540 -0.21030 219 ft 27 kts 78°
2026-05-04 13:25 51.14820 -0.18996 226 ft 155 kts 77°
2026-05-04 13:25 51.15059 -0.17162 674 ft 178 kts 77°
2026-05-04 13:25 51.15324 -0.15175 1486 ft 190 kts 78°
2026-05-04 13:25 51.15597 -0.13046 2300 ft 204 kts 78°
2026-05-04 13:26 51.15924 -0.10692 2796 ft 230 kts 77°
2026-05-04 13:26 51.16165 -0.09009 3213 ft 239 kts 77°
2026-05-04 13:26 51.16665 -0.05477 4178 ft 249 kts 78°
2026-05-04 13:26 51.16838 -0.03643 4530 ft 259 kts 85°
2026-05-04 13:27 51.16876 -0.00661 4922 ft 281 kts 91°
2026-05-04 13:27 51.16840 0.02434 5552 ft 277 kts 87°
2026-05-04 13:27 51.16840 0.05500 6142 ft 277 kts 87°
2026-05-04 13:27 51.16827 0.08572 6659 ft 278 kts 88°
2026-05-04 13:28 51.16836 0.11655 7198 ft 279 kts 82°
2026-05-04 13:28 51.17476 0.14481 7723 ft 282 kts 53°
2026-05-04 13:28 51.18795 0.16815 8169 ft 286 kts 41°
2026-05-04 13:28 51.20264 0.18982 8662 ft 289 kts 39°
2026-05-04 13:29 51.21768 0.21119 9205 ft 291 kts 39°
2026-05-04 13:29 51.23365 0.23101 9756 ft 292 kts 36°
2026-05-04 13:29 51.25004 0.25049 10289 ft 295 kts 35°
2026-05-04 13:29 51.26657 0.27009 10783 ft 299 kts 36°
2026-05-04 13:30 51.28354 0.29023 11782 ft 305 kts 36°
2026-05-04 13:30 51.30053 0.31042 12916 ft 306 kts 34°
2026-05-04 13:30 51.31770 0.33107 13928 ft 311 kts 34°
2026-05-04 13:30 51.33510 0.35207 14811 ft 316 kts 34°
2026-05-04 13:31 51.35278 0.37343 15626 ft 322 kts 34°
2026-05-04 13:31 51.37076 0.39516 16457 ft 326 kts 35°
2026-05-04 13:31 51.38905 0.41710 17297 ft 330 kts 34°
2026-05-04 13:31 51.40828 0.43767 18124 ft 335 kts 30°
2026-05-04 13:32 51.42826 0.45756 18811 ft 340 kts 30°
2026-05-04 13:32 51.44849 0.47768 19493 ft 345 kts 30°
2026-05-04 13:32 51.46889 0.49821 20199 ft 348 kts 30°
2026-05-04 13:32 51.48939 0.51910 20882 ft 351 kts 32°
2026-05-04 13:33 51.51021 0.54005 21567 ft 355 kts 31°
2026-05-04 13:33 51.53139 0.56095 22240 ft 359 kts 31°
2026-05-04 13:33 51.55278 0.58216 22896 ft 364 kts 31°
2026-05-04 13:33 51.57441 0.60367 23555 ft 368 kts 30°
2026-05-04 13:34 51.59684 0.62380 24063 ft 373 kts 27°
2026-05-04 13:34 51.62025 0.64330 24323 ft 386 kts 26°
2026-05-04 13:34 51.64454 0.66332 24547 ft 399 kts 26°
2026-05-04 13:34 51.66965 0.68399 24764 ft 412 kts 26°
2026-05-04 13:35 51.69555 0.70530 24991 ft 423 kts 26°
2026-05-04 13:35 51.74880 0.74882 25778 ft 435 kts 25°
2026-05-04 13:35 51.77662 0.76870 26224 ft 438 kts 21°
2026-05-04 13:36 51.80520 0.78629 26676 ft 442 kts 22°
2026-05-04 13:36 51.83188 0.81251 27133 ft 446 kts 39°
2026-05-04 13:36 51.85482 0.84869 27595 ft 449 kts 51°
2026-05-04 13:36 51.87204 0.88983 28016 ft 451 kts 63°
2026-05-04 13:37 51.88571 0.93562 28457 ft 454 kts 67°
2026-05-04 13:37 51.89838 0.98258 28861 ft 457 kts 69°
2026-05-04 13:37 51.91041 1.03036 29285 ft 460 kts 70°
2026-05-04 13:37 51.92238 1.07853 29696 ft 463 kts 66°
2026-05-04 13:38 51.93527 1.12656 30033 ft 466 kts 65°
2026-05-04 13:38 51.94857 1.17463 30339 ft 469 kts 65°
2026-05-04 13:38 51.96184 1.22309 30654 ft 471 kts 65°
2026-05-04 13:38 51.97490 1.27197 30968 ft 473 kts 66°
2026-05-04 13:39 51.98773 1.32124 31268 ft 475 kts 66°
2026-05-04 13:39 52.00041 1.37085 31589 ft 477 kts 66°
2026-05-04 13:39 52.01265 1.42092 31924 ft 479 kts 71°
2026-05-04 13:39 52.02411 1.47182 32248 ft 481 kts 72°
2026-05-04 13:40 52.03551 1.52290 32593 ft 483 kts 72°
2026-05-04 13:40 52.04723 1.57400 33013 ft 483 kts 71°
2026-05-04 13:40 52.05928 1.62486 33461 ft 482 kts 70°
2026-05-04 13:40 52.07158 1.67551 33922 ft 481 kts 70°
2026-05-04 13:41 52.08402 1.72597 34312 ft 480 kts 70°
2026-05-04 13:41 52.09650 1.77625 34714 ft 479 kts 70°
2026-05-04 13:41 52.10894 1.82631 35118 ft 477 kts 70°
2026-05-04 13:42 52.13363 1.92611 35854 ft 474 kts 70°
2026-05-04 13:42 52.14587 1.97586 36187 ft 474 kts 70°
2026-05-04 13:42 52.15813 2.02585 36382 ft 477 kts 70°
2026-05-04 13:42 52.17040 2.07606 36637 ft 478 kts 70°
2026-05-04 13:43 52.18266 2.12634 36987 ft 476 kts 70°
2026-05-04 13:43 52.19485 2.17641 37350 ft 475 kts 70°
2026-05-04 13:43 52.20700 2.22646 37705 ft 474 kts 70°
2026-05-04 13:43 52.21909 2.27638 38029 ft 473 kts 70°
2026-05-04 13:44 52.23115 2.32629 38348 ft 472 kts 70°
2026-05-04 13:44 52.24316 2.37608 38652 ft 472 kts 70°
2026-05-04 13:44 52.25515 2.42589 38883 ft 471 kts 70°
2026-05-04 13:44 52.26714 2.47587 39003 ft 474 kts 69°
2026-05-04 13:45 52.29119 2.57645 39013 ft 481 kts 69°
2026-05-04 13:45 52.31312 2.67871 39010 ft 473 kts 74°
2026-05-04 13:46 52.33183 2.78160 39008 ft 472 kts 75°
2026-05-04 13:46 52.34986 2.88464 39009 ft 471 kts 75°
2026-05-04 13:47 52.36777 2.98769 38999 ft 471 kts 73°
2026-05-04 13:47 52.38638 3.09037 39005 ft 470 kts 73°
2026-05-04 13:48 52.41275 3.18886 39010 ft 471 kts 56°
2026-05-04 13:48 52.45010 3.27710 39010 ft 471 kts 54°
2026-05-04 13:49 52.48877 3.36386 39017 ft 471 kts 53°
2026-05-04 13:49 52.52787 3.45013 39012 ft 471 kts 53°
2026-05-04 13:50 52.56703 3.53638 39003 ft 471 kts 53°
2026-05-04 13:50 52.60606 3.62272 39004 ft 470 kts 53°
2026-05-04 13:51 52.64501 3.70926 39007 ft 470 kts 53°
2026-05-04 13:51 52.68388 3.79596 39007 ft 470 kts 53°
2026-05-04 13:52 52.74204 3.92625 39008 ft 470 kts 54°
2026-05-04 13:53 52.78074 4.01332 39004 ft 470 kts 54°
2026-05-04 13:53 52.81937 4.10051 39003 ft 470 kts 54°
2026-05-04 13:54 52.87714 4.23148 39004 ft 470 kts 54°
2026-05-04 13:55 52.93477 4.36282 39020 ft 470 kts 54°
2026-05-04 13:55 52.99229 4.49458 39016 ft 470 kts 54°
2026-05-04 13:56 53.03057 4.58265 39015 ft 470 kts 54°
2026-05-04 13:57 53.08784 4.71499 39020 ft 470 kts 54°
2026-05-04 13:58 53.16401 4.89207 39025 ft 470 kts 54°
2026-05-04 13:58 53.22071 5.02470 39022 ft 470 kts 54°
2026-05-04 13:59 53.25860 5.11372 39023 ft 470 kts 54°
2026-05-04 14:00 53.31529 5.24747 39015 ft 470 kts 54°
2026-05-04 14:00 53.37180 5.38151 39026 ft 470 kts 54°
2026-05-04 14:01 53.40940 5.47109 39024 ft 470 kts 54°
2026-05-04 14:02 53.46570 5.60580 39024 ft 470 kts 54°
2026-05-04 14:02 53.50313 5.69578 39012 ft 470 kts 55°
2026-05-04 14:03 53.54050 5.78590 39022 ft 470 kts 55°
2026-05-04 14:03 53.57174 5.86152 39016 ft 470 kts 55°
2026-05-04 14:04 53.62762 5.99737 39017 ft 471 kts 55°
2026-05-04 14:04 53.66481 6.08819 39014 ft 471 kts 55°
2026-05-04 14:05 53.72078 6.22548 39015 ft 471 kts 55°
2026-05-04 14:06 53.75785 6.31679 39010 ft 471 kts 55°
2026-05-04 14:06 53.79486 6.40832 39015 ft 471 kts 55°
2026-05-04 14:07 53.83177 6.49995 39017 ft 472 kts 55°
2026-05-04 14:07 53.86866 6.59186 39012 ft 472 kts 55°
2026-05-04 14:08 53.90547 6.68390 39013 ft 472 kts 55°
2026-05-04 14:08 53.94223 6.77615 39010 ft 472 kts 55°
2026-05-04 14:09 53.99725 6.91486 39014 ft 472 kts 55°
2026-05-04 14:10 54.05209 7.05389 39028 ft 472 kts 55°
2026-05-04 14:10 54.08861 7.14691 39025 ft 475 kts 55°
2026-05-04 14:11 54.12567 7.24161 39022 ft 484 kts 55°
2026-05-04 14:11 54.18147 7.38497 39021 ft 483 kts 56°
2026-05-04 14:12 54.21852 7.48062 39019 ft 483 kts 56°
2026-05-04 14:13 54.27432 7.62534 39020 ft 484 kts 56°
2026-05-04 14:13 54.31131 7.72176 39018 ft 484 kts 56°
2026-05-04 14:14 54.34821 7.81829 39016 ft 484 kts 56°
2026-05-04 14:14 54.40343 7.96347 39018 ft 484 kts 56°
2026-05-04 14:15 54.47681 8.15770 39017 ft 485 kts 56°
2026-05-04 14:16 54.53194 8.30391 39015 ft 486 kts 54°
2026-05-04 14:17 54.58771 8.44972 39010 ft 486 kts 54°
2026-05-04 14:18 54.64257 8.59684 39008 ft 486 kts 55°
2026-05-04 14:19 54.71560 8.79540 39004 ft 487 kts 55°
2026-05-04 14:19 54.75183 8.89443 39001 ft 487 kts 55°
2026-05-04 14:20 54.78805 8.99378 38996 ft 488 kts 55°
2026-05-04 14:20 54.82417 9.09326 38996 ft 488 kts 55°
2026-05-04 14:21 54.88306 9.23706 38988 ft 484 kts 46°
2026-05-04 14:21 54.92719 9.32571 38993 ft 485 kts 45°
2026-05-04 14:22 54.97178 9.41512 38990 ft 486 kts 47°
2026-05-04 14:22 55.01638 9.50501 38988 ft 487 kts 47°
2026-05-04 14:23 55.08288 9.63874 38988 ft 487 kts 50°
2026-05-04 14:24 55.11598 9.74171 38887 ft 488 kts 68°
2026-05-04 14:24 55.12765 9.79734 38521 ft 485 kts 71°
2026-05-04 14:24 55.13807 9.85291 38302 ft 477 kts 72°
2026-05-04 14:24 55.14777 9.90790 38047 ft 470 kts 72°
2026-05-04 14:25 55.15716 9.96238 37629 ft 466 kts 73°
2026-05-04 14:25 55.17580 10.07062 36645 ft 464 kts 72°
2026-05-04 14:25 55.18518 10.12457 36140 ft 463 kts 72°
2026-05-04 14:26 55.19459 10.17849 35644 ft 463 kts 72°
2026-05-04 14:26 55.20401 10.23234 35137 ft 462 kts 72°
2026-05-04 14:26 55.21341 10.28612 34637 ft 462 kts 72°
2026-05-04 14:26 55.22281 10.33998 34139 ft 462 kts 72°
2026-05-04 14:27 55.23217 10.39378 33578 ft 462 kts 72°
2026-05-04 14:27 55.24151 10.44765 32946 ft 463 kts 72°
2026-05-04 14:27 55.25085 10.50168 32339 ft 464 kts 72°
2026-05-04 14:27 55.26016 10.55576 32000 ft 464 kts 72°
2026-05-04 14:28 55.27845 10.66240 31642 ft 462 kts 72°
2026-05-04 14:28 55.28788 10.71735 30853 ft 468 kts 72°
2026-05-04 14:28 55.29726 10.77207 30243 ft 468 kts 72°
2026-05-04 14:29 55.31580 10.88068 29461 ft 456 kts 72°
2026-05-04 14:29 55.33368 10.98619 28397 ft 449 kts 72°
2026-05-04 14:30 55.34246 11.03866 27938 ft 446 kts 72°
2026-05-04 14:30 55.35116 11.09094 27329 ft 446 kts 72°
2026-05-04 14:30 55.36850 11.19581 26028 ft 448 kts 73°
2026-05-04 14:31 55.37712 11.24822 25565 ft 445 kts 73°
2026-05-04 14:31 55.39411 11.35191 24664 ft 438 kts 73°
2026-05-04 14:32 55.40799 11.43705 23889 ft 434 kts 73°
2026-05-04 14:32 55.41637 11.48864 23408 ft 431 kts 73°
2026-05-04 14:32 55.42455 11.53912 22879 ft 428 kts 73°
2026-05-04 14:32 55.43308 11.58929 22375 ft 425 kts 68°
2026-05-04 14:33 55.44708 11.63439 21843 ft 417 kts 49°
2026-05-04 14:33 55.46595 11.67267 21370 ft 411 kts 41°
2026-05-04 14:33 55.48642 11.70724 20860 ft 406 kts 38°
2026-05-04 14:33 55.50741 11.74020 20360 ft 403 kts 37°
2026-05-04 14:34 55.52847 11.77260 19872 ft 400 kts 37°
2026-05-04 14:34 55.54946 11.80481 19346 ft 399 kts 37°
2026-05-04 14:34 55.56991 11.83637 18906 ft 396 kts 37°
2026-05-04 14:34 55.59090 11.86902 18444 ft 393 kts 37°
2026-05-04 14:35 55.61131 11.90100 17940 ft 391 kts 38°
2026-05-04 14:35 55.63153 11.93286 17457 ft 388 kts 38°
2026-05-04 14:35 55.65155 11.96451 16951 ft 385 kts 38°
2026-05-04 14:35 55.67140 11.99598 16462 ft 381 kts 38°
2026-05-04 14:36 55.69111 12.02726 15979 ft 378 kts 38°
2026-05-04 14:36 55.71042 12.05874 15502 ft 377 kts 43°
2026-05-04 14:36 55.72532 12.09712 15016 ft 380 kts 64°
2026-05-04 14:36 55.73189 12.14229 14540 ft 380 kts 84°
2026-05-04 14:37 55.73269 12.18879 14181 ft 372 kts 93°
2026-05-04 14:37 55.73084 12.23399 13665 ft 362 kts 97°
2026-05-04 14:37 55.72776 12.27754 12972 ft 351 kts 99°
2026-05-04 14:37 55.72431 12.32002 12222 ft 344 kts 99°
2026-05-04 14:38 55.72091 12.36171 11474 ft 338 kts 99°
2026-05-04 14:38 55.71777 12.40263 10735 ft 333 kts 98°
2026-05-04 14:38 55.71487 12.44314 9998 ft 329 kts 98°
2026-05-04 14:38 55.71254 12.48331 9176 ft 326 kts 91°
2026-05-04 14:39 55.71618 12.52260 8348 ft 323 kts 72°
2026-05-04 14:39 55.72362 12.55931 7822 ft 310 kts 65°
2026-05-04 14:39 55.73242 12.59360 7240 ft 302 kts 62°
2026-05-04 14:40 55.75550 12.65332 6091 ft 283 kts 41°
2026-05-04 14:40 55.76921 12.67699 5733 ft 268 kts 38°
2026-05-04 14:40 55.78289 12.69885 5300 ft 260 kts 37°
2026-05-04 14:40 55.79605 12.71982 5023 ft 251 kts 40°
2026-05-04 14:41 55.80610 12.74525 4849 ft 254 kts 62°
2026-05-04 14:41 55.80990 12.77581 4612 ft 252 kts 90°
2026-05-04 14:41 55.79534 12.82484 4216 ft 211 kts 148°
2026-05-04 14:42 55.77778 12.86242 3951 ft 201 kts 117°
2026-05-04 14:42 55.76913 12.88132 3834 ft 197 kts 136°
2026-05-04 14:42 55.76271 12.90257 3710 ft 198 kts 103°
2026-05-04 14:43 55.75973 12.92633 3622 ft 197 kts 104°
2026-05-04 14:43 55.75939 12.95034 3507 ft 196 kts 72°
2026-05-04 14:43 55.76482 12.97220 3399 ft 191 kts 53°
2026-05-04 14:43 55.77463 12.98624 3266 ft 178 kts 12°
2026-05-04 14:44 55.78615 12.98546 3134 ft 160 kts 331°
2026-05-04 14:44 55.79342 12.97231 3070 ft 150 kts 290°
2026-05-04 14:44 55.79417 12.95412 3015 ft 150 kts 265°
2026-05-04 14:44 55.79168 12.93603 2995 ft 152 kts 249°
2026-05-04 14:45 55.78596 12.92006 2968 ft 155 kts 236°
2026-05-04 14:45 55.77853 12.90603 2935 ft 158 kts 230°
2026-05-04 14:45 55.77042 12.89299 2834 ft 156 kts 227°
2026-05-04 14:45 55.76246 12.88063 2698 ft 148 kts 227°
2026-05-04 14:46 55.75463 12.86848 2586 ft 148 kts 227°
2026-05-04 14:46 55.74702 12.85661 2485 ft 146 kts 227°
2026-05-04 14:46 55.73936 12.84493 2344 ft 141 kts 226°
2026-05-04 14:46 55.73168 12.83428 2203 ft 141 kts 221°
2026-05-04 14:47 55.72389 12.82414 2118 ft 139 kts 223°
2026-05-04 14:47 55.71676 12.81271 2059 ft 134 kts 233°
2026-05-04 14:47 55.71017 12.80121 2051 ft 136 kts 229°
2026-05-04 14:47 55.70301 12.79007 2012 ft 137 kts 228°
2026-05-04 14:48 55.69591 12.77924 1903 ft 132 kts 227°
2026-05-04 14:48 55.68908 12.76893 1678 ft 127 kts 226°
2026-05-04 14:48 55.68246 12.75848 1476 ft 126 kts 229°
2026-05-04 14:48 55.67616 12.74778 1315 ft 125 kts 229°
2026-05-04 14:49 55.66972 12.73748 1143 ft 124 kts 226°
2026-05-04 14:49 55.66308 12.72768 1025 ft 124 kts 226°
2026-05-04 14:49 55.65670 12.71727 831 ft 125 kts 231°
2026-05-04 14:49 55.65050 12.70672 673 ft 122 kts 225°
2026-05-04 14:50 55.64388 12.69717 456 ft 121 kts 224°
2026-05-04 14:50 55.63756 12.68739 304 ft 120 kts 226°
2026-05-04 14:50 55.63134 12.67712 179 ft 122 kts 226°
2026-05-04 14:50 55.62503 12.66715 44 ft 122 kts 227°
2026-05-04 14:51 55.61991 12.65901 28 ft 66 kts 221°
2026-05-04 14:51 55.61755 12.65533 27 ft 37 kts 221°
2026-05-04 14:51 55.61570 12.65252 32 ft 33 kts 221°
2026-05-04 14:51 55.61407 12.64994 29 ft 30 kts 222°
2026-05-04 14:52 55.61285 12.64724 29 ft 27 kts 243°
2026-05-04 14:52 55.61224 12.64437 27 ft 24 kts 251°
2026-05-04 14:52 55.61195 12.64187 27 ft 15 kts 289°
2026-05-04 14:52 55.61271 12.64117 27 ft 13 kts 17°
2026-05-04 14:53 55.61349 12.64189 27 ft 13 kts 33°
2026-05-04 14:53 55.61432 12.64283 28 ft 15 kts 33°
2026-05-04 14:53 55.61524 12.64389 28 ft 16 kts 33°
2026-05-04 14:53 55.61623 12.64506 28 ft 18 kts 34°
2026-05-04 14:54 55.61715 12.64615 28 ft 14 kts 32°
2026-05-04 14:54 55.61803 12.64712 28 ft 15 kts 33°
2026-05-04 14:54 55.61897 12.64819 27 ft 17 kts 33°
2026-05-04 14:54 55.61993 12.64932 27 ft 17 kts 33°
2026-05-04 14:55 55.62094 12.65047 28 ft 18 kts 33°
2026-05-04 14:55 55.62148 12.65099 28 ft 1 kts 13°
2026-05-04 14:55 55.62162 12.65098 28 ft 3 kts 359°
2026-05-04 14:55 55.62178 12.65086 28 ft 0 kts 335°
2026-05-04 14:56 55.62180 12.65084 28 ft 1 kts 329°
2026-05-04 14:56 55.62212 12.65013 28 ft 13 kts 304°
2026-05-04 14:56 55.62273 12.64847 28 ft 18 kts 302°
2026-05-04 14:56 55.62293 12.64801 28 ft 0 kts 325°
2026-05-04 14:57 55.62303 12.64797 28 ft 5 kts 342°
2026-05-04 14:57 55.62364 12.64784 28 ft 13 kts 358°
2026-05-04 14:57 55.62466 12.64776 28 ft 15 kts 357°
2026-05-04 14:57 55.62572 12.64770 28 ft 15 kts 359°
2026-05-04 14:58 55.62641 12.64781 28 ft 0 kts 13°
2026-05-04 14:58 55.62643 12.64783 28 ft 2 kts 17°
2026-05-04 14:58 55.62657 12.64807 28 ft 4 kts 52°
2026-05-04 14:58 55.62662 12.64839 28 ft 3 kts 87°
2026-05-04 14:59 55.62659 12.64897 28 ft 0 kts 102°
2026-05-04 14:59 55.62659 12.64903 28 ft 0 kts 102°